CAPE
1 0 0 1 3 4 4 1 0 0 2 0 0 1 30 22 7 15 0 0 0 0 0 0 0 0 0 0 0 0 0 0 0 0 0 0 0 0 0 0 0 0 0 0 0
5 1 0 4 2 3 3 1 0 0 0 3 0 3 10 8 9 7 0 0 7 11 0 0 0 0 0 0 0 0 0 0 0 0 0 0 0 0 0 0 0 0 0 0 0
14 14 2 1 10 5 2 3 0 0 0 0 0 0 6 3 0 0 0 2 26 41 0 0 0 0 0 0 0 0 0 0 0 0 0 0 0 0 0 0 0 0 0 0 0
36 25 9 0 5 10 2 1 0 0 0 0 0 0 0 0 0 0 0 0 4 27 0 0 0 0 0 0 0 0 0 0 0 0 0 0 0 0 0 0 0 0 0 0 0
32 37 19 6 0 17 3 1 0 0 0 0 0 0 0 0 0 0 0 0 0 20 8 7 0 0 0 0 0 0 0 0 0 0 0 0 0 0 0 0 0 0 0 0 0
13 26 24 12 4 10 11 0 0 0 0 0 0 1 0 0 0 0 0 0 0 31 17 21 0 0 0 0 0 0 0 0 0 0 0 0 0 0 0 0 0 0 0 0 0
24 31 33 21 9 0 13 9 7 0 0 0 0 0 0 0 0 0 0 0 0 0 1 22 37 20 15 2 0 0 0 0 0 0 0 0 0 0 0 0 0 0 0 0 0
2 29 23 17 14 1 1 16 29 9 1 0 8 0 0 0 0 0 0 0 0 0 0 0 19 14 32 9 2 5 1 0 0 0 0 0 0 0 0 0 0 0 0 0 0
0 12 43 36 14 0 0 14 26 21 9 15 0 0 0 0 0 0 0 0 0 0 0 1 0 0 2 10 6 2 0 0 0 0 0 0 0 0 0 0 0 0 0 0 0
21 0 23 31 25 6 3 14 29 7 3 15 6 0 0 0 0 0 0 0 0 0 0 0 0 0 0 5 0 0 0 1 0 0 0 0 0 0 0 0 0 0 0 0 0
14 8 34 46 41 6 3 9 1 0 0 0 1 0 0 0 0 0 0 0 0 0 0 0 0 0 0 0 1 0 0 0 0 0 0 0 0 0 0 0 0 0 0 0 0
3 13 33 56 35 19 0 0 0 0 0 0 0 0 0 0 0 0 0 0 0 0 0 0 0 0 0 0 0 0 0 1 0 0 0 0 0 0 0 0 0 0 0 0 0
5 7 36 67 43 13 0 0 0 0 0 0 0 0 0 0 1 0 0 0 0 0 0 0 0 0 0 0 0 0 0 0 0 0 0 0 0 0 0 0 0 0 0 0 0
20 1 40 77 32 1 4 0 0 4 0 0 0 0 2 17 2 0 0 0 0 0 0 0 0 0 0 0 0 0 0 0 0 0 0 0 0 0 0 0 0 0 0 0 0
6 0 28 26 0 1 0 0 4 8 0 0 2 0 13 3 0 0 1 2 0 0 0 0 0 0 0 0 0 1 0 0 0 0 0 0 1 0 0 0 0 0 0 0 0
1 6 5 0 0 0 0 0 20 0 0 0 0 1 3 6 4 1 0 19 8 4 1 0 0 0 0 0 0 6 1 12 8 2 1 0 0 0 0 0 0 0 0 0 0
1 22 3 0 0 0 0 0 1 0 0 0 0 2 0 1 2 3 0 2 3 0 1 0 1 2 0 0 0 2 5 0 0 2 0 0 0 0 0 0 0 0 0 0 0
14 0 2 0 0 0 0 0 0 0 0 0 0 0 0 0 1 2 6 1 16 4 0 0 0 1 0 0 0 0 0 0 0 0 0 0 0 0 0 0 0 0 0 0 0
17 0 16 3 0 1 1 0 0 0 0 0 1 1 0 0 1 3 6 1 3 1 1 0 0 0 0 0 0 0 0 0 0 0 0 0 0 0 0 0 0 0 0 0 0
2 5 18 1 1 9 1 0 0 0 0 0 0 0 0 2 1 2 0 0 1 0 1 0 0 0 0 0 1 0 0 0 0 0 0 0 0 0 0 0 0 0 0 0 0
10 5 39 1 5 7 0 0 0 0 0 0 0 0 0 0 1 0 0 0 0 0 1 4 1 0 1 3 0 5 1 5 0 0 0 0 0 0 0 0 0 0 0 0 0
7 0 23 5 4 0 0 0 0 0 0 0 0 0 1 0 0 0 0 0 0 0 2 1 1 0 0 0 0 0 0 3 0 0 0 0 0 0 0 0 0 0 0 0 0
10 6 24 11 0 0 2 0 0 0 0 0 0 2 0 5 0 0 0 0 0 0 0 0 0 0 0 0 1 0 0 1 0 11 0 0 0 0 0 0 0 0 0 0 0
5 0 7 8 2 0 1 3 2 0 1 2 2 5 4 0 0 0 0 0 0 0 0 0 0 0 0 0 0 1 2 1 1 3 0 0 0 0 0 0 0 0 0 0 0
0 1 1 0 1 0 0 1 2 2 1 2 2 2 2 1 1 0 0 0 0 0 1 1 0 0 0 0 0 0 1 2 1 0 0 0 0 0 0 0 0 0 0 0 0
7 2 3 3 1 0 1 1 1 0 1 0 1 1 1 2 0 0 0 0 0 0 2 4 0 0 0 2 3 0 0 1 1 2 0 0 0 0 0 0 0 0 0 0 0
1 0 0 4 1 2 1 0 0 3 1 0 0 1 3 1 0 0 0 0 0 0 2 0 0 0 0 2 0 0 0 0 0 0 1 0 0 0 0 0 0 0 0 0 0
CIN
-27 0 0 0 0 0 0 0 0 0 0 0 -16 -6 -2 0 -5 -2 0 0 0 0 0 0 0 0 0 0 0 0 0 0 0 0 0 0 0 0 0 0 0 0 0 0 0
-31 -21 0 0 0 0 0 0 0 0 0 0 0 -10 -3 -5 -3 -2 0 0 -18 -9 0 0 0 0 0 0 0 0 0 0 0 0 0 0 0 0 0 0 0 0 0 0 0
-19 -24 -19 0 0 0 0 0 0 0 0 0 0 0 -13 -26 0 0 0 -12 -15 0 0 0 0 0 0 0 0 0 0 0 0 0 0 0 0 0 0 0 0 0 0 0 0
-5 -15 -18 0 0 0 0 0 0 0 0 0 0 0 0 0 0 0 0 0 -2 -3 0 0 0 0 0 0 0 0 0 0 0 0 0 0 0 0 0 0 0 0 0 0 0
-6 -6 -16 -11 0 0 0 0 0 0 0 0 0 0 0 0 0 0 0 0 0 -2 0 -1 0 0 0 0 0 0 0 0 0 0 0 0 0 0 0 0 0 0 0 0 0
-12 -4 -13 -14 -4 0 -1 0 0 0 0 0 0 0 0 0 0 0 0 0 0 -2 -1 -1 0 0 0 0 0 0 0 0 0 0 0 0 0 0 0 0 0 0 0 0 0
-8 -11 -18 -18 -6 0 -2 0 0 0 0 0 0 0 0 0 0 0 0 0 0 -1 0 -8 -3 -1 -5 -1 0 0 0 0 0 0 0 0 0 0 0 0 0 0 0 0 0
-18 -12 -10 -9 -11 -6 0 0 -1 -1 0 0 0 0 0 0 0 0 0 0 0 0 0 0 -15 -2 0 -10 -9 -2 -4 0 0 0 0 0 0 0 0 0 0 0 0 0 0
0 -16 -18 -14 -6 0 0 0 -1 -3 -3 -2 0 0 0 0 0 0 0 0 0 0 0 -5 -8 0 -16 -2 -1 -2 0 0 0 0 0 0 0 0 0 0 0 0 0 0 0
-16 -8 -14 -26 -11 -18 -10 -3 0 -11 -1 -1 -1 0 0 0 0 0 0 0 0 0 0 0 0 0 0 -2 0 0 -1 0 0 0 0 0 0 0 0 0 0 0 0 0 0
0 -14 -8 -26 -25 -18 -7 -10 0 -1 -3 0 -4 0 0 0 0 0 0 0 0 0 0 0 -2 0 0 0 -6 -1 0 -2 0 -10 0 0 0 0 0 0 0 0 0 0 0
0 -5 -5 -8 -16 -13 0 0 0 0 0 0 0 0 0 0 0 0 0 0 0 0 0 0 0 0 0 0 0 0 0 0 0 0 0 0 0 0 0 0 0 0 0 0 0
0 0 -6 -4 -9 -9 0 0 0 0 0 0 0 0 0 -14 -2 -5 0 0 0 0 0 0 0 0 0 0 0 0 0 0 0 0 0 0 0 0 0 0 0 0 0 0 0
0 0 0 -7 -5 -6 0 0 0 -18 0 0 0 0 -2 -5 -2 -1 0 0 0 0 0 -1 -8 0 0 0 0 0 0 0 0 0 0 0 0 0 0 0 0 0 0 0 0
0 0 -1 -3 0 0 0 0 -6 -12 0 0 0 0 -1 -3 -4 0 -5 -4 0 -3 0 0 0 0 0 0 0 0 0 0 0 0 0 0 0 0 0 0 0 0 0 0 0
0 0 -16 0 0 0 0 0 -10 0 0 0 -2 0 0 -2 -3 -6 0 -1 -10 0 0 0 0 0 0 0 0 -1 -1 -3 -2 0 0 0 -1 0 0 0 0 0 0 0 0
-5 -1 0 0 0 0 0 0 0 0 0 0 0 0 0 0 -2 -5 -3 -3 -1 0 0 0 0 -3 -5 0 0 0 0 0 0 -1 0 0 0 0 0 0 0 0 0 0 0
-14 -2 0 -31 0 0 0 0 0 0 0 0 0 0 0 0 -3 0 0 0 0 -3 -1 -2 0 0 0 0 0 0 0 0 0 0 0 0 0 0 0 0 0 0 0 0 0
-5 0 0 0 0 -25 -2 0 0 0 0 0 0 0 -1 0 -1 -1 0 0 0 -5 -1 -1 0 0 0 0 0 0 0 0 -1 0 -2 0 0 0 0 0 0 0 0 0 0
0 -2 0 -1 -5 -4 0 0 0 0 0 0 0 0 0 0 0 0 0 0 0 0 -10 0 0 0 0 0 0 0 0 -1 0 0 0 0 0 0 0 0 0 0 0 0 0
-1 0 0 0 -18 0 0 0 0 0 0 0 0 0 0 0 0 -1 0 0 0 0 -9 -1 -1 0 -1 0 0 0 -1 -4 -2 0 0 0 0 0 0 0 0 0 0 0 0
0 0 0 -5 0 0 0 0 0 0 0 0 0 0 0 0 0 0 0 0 0 0 0 0 0 0 0 0 0 0 0 -19 0 0 0 0 0 0 0 0 0 0 0 0 0
-6 0 0 -2 0 0 0 0 0 0 0 0 0 0 0 0 0 0 0 0 0 0 0 0 0 0 0 0 0 0 0 0 0 -10 0 0 0 0 0 0 0 0 0 0 0
0 0 0 0 0 0 0 0 -1 -1 0 0 0 0 0 0 -3 0 0 0 0 0 0 0 0 0 0 0 0 0 0 0 -2 -1 0 0 0 0 0 0 0 0 0 0 0
0 0 0 0 0 0 0 -1 0 0 0 0 0 0 0 0 0 0 0 0 0 0 -9 0 0 0 0 0 0 0 0 0 0 0 0 0 0 0 0 0 0 0 0 0 0
0 -1 -1 0 0 0 0 0 0 0 0 0 0 0 0 0 -2 0 0 0 0 0 0 0 0 0 0 0 0 0 0 0 0 0 0 0 0 0 0 0 0 0 0 0 0
0 0 0 0 0 0 0 -10 0 0 0 0 0 0 -6 -2 -5 0 0 0 0 0 0 0 0 0 0 0 0 0 0 0 0 0 0 0 0 0 0 0 0 0 0 0 0
Wind_Speed
25 25 25 25 25 25 24 24 23 24 23 21 20 19 20 19 18 17 19 14 14 17 19 21 19 21 19 20 19 17 25 27 22 22 23 20 23 22 22 24 22 20 18 20 15
23 25 25 25 25 25 24 23 22 23 22 21 19 18 17 16 20 23 19 17 12 14 19 20 22 22 22 22 21 21 26 27 27 28 29 28 29 27 27 28 25 22 21 20 11
24 24 25 26 25 24 23 22 20 21 21 20 18 18 17 17 25 27 18 8 8 15 16 18 20 23 24 23 24 25 28 33 32 30 33 33 33 30 33 35 27 25 21 16 14
25 25 24 24 26 24 22 21 20 19 20 19 18 18 17 17 24 18 17 16 9 8 11 16 18 20 23 24 27 33 32 37 34 33 32 31 29 31 29 30 29 27 23 21 18
29 23 23 23 24 24 22 20 19 19 19 18 18 17 16 21 24 17 18 18 12 2 6 11 15 18 23 24 31 33 36 37 38 40 40 40 42 37 45 40 38 35 30 29 27
30 25 22 22 22 24 22 21 20 19 19 18 18 16 18 26 18 17 18 18 13 8 8 9 16 16 23 24 28 29 34 38 37 39 39 43 47 40 34 33 40 39 38 34 33
31 24 22 21 21 22 21 21 20 19 18 18 17 17 20 23 16 12 15 16 15 11 13 12 13 15 18 25 25 28 39 42 40 36 37 33 54 50 41 36 43 43 39 36 34
32 27 22 20 20 20 20 20 19 17 18 18 17 18 24 19 18 20 15 16 16 14 15 14 12 16 21 24 25 27 31 39 34 33 31 26 56 29 30 39 48 46 41 38 39
34 30 24 19 18 18 18 18 17 17 19 18 19 20 27 21 19 15 12 14 13 12 14 15 15 18 19 24 30 27 35 34 35 30 31 30 49 34 33 36 43 42 42 40 41
35 34 29 20 17 16 17 16 15 18 20 20 21 23 24 21 16 16 9 10 14 13 17 18 18 20 21 22 31 32 34 35 38 32 31 42 51 45 40 39 42 42 45 46 43
39 36 29 22 18 15 14 14 20 25 23 23 20 20 19 17 15 17 11 9 15 17 20 20 24 26 24 23 29 38 40 39 35 32 36 45 51 47 44 44 46 47 44 42 43
38 38 33 23 17 15 14 21 21 20 28 26 27 23 23 19 22 18 9 15 19 22 21 26 30 26 26 27 32 37 42 45 43 40 42 46 58 50 48 49 43 41 44 44 35
38 38 37 24 17 16 18 19 15 20 29 27 24 26 25 23 24 20 12 17 20 21 22 28 27 21 28 31 32 34 38 42 45 41 44 48 65 57 49 46 44 40 39 42 35
40 37 36 23 20 19 21 17 15 17 30 27 22 22 18 19 25 16 10 16 22 25 25 32 29 29 33 33 27 37 32 36 40 40 45 30 57 46 38 42 41 41 39 39 34
38 37 34 23 19 23 19 11 9 15 35 18 17 15 12 12 17 17 12 16 24 23 23 30 28 26 32 30 24 32 29 33 34 39 44 46 47 47 34 45 47 40 39 37 33
40 40 36 21 21 20 11 9 9 21 32 19 14 13 14 16 19 19 16 15 21 25 26 29 24 26 28 26 27 27 31 33 32 37 50 46 44 61 47 43 43 38 38 38 36
44 41 32 20 23 14 14 12 21 28 17 19 16 13 15 18 21 20 20 20 24 29 31 32 31 28 25 29 26 27 30 35 39 41 47 34 41 50 36 31 35 36 39 37 34
42 35 34 19 15 17 18 20 29 22 20 13 11 10 14 17 21 18 22 24 21 24 31 33 38 26 23 27 28 27 29 35 41 44 46 38 52 47 35 37 39 36 36 32 31
32 36 32 20 18 18 21 29 27 19 13 10 11 16 16 16 16 16 21 23 21 14 25 27 30 20 19 21 21 25 30 30 35 34 38 37 45 43 39 41 40 38 36 37 29
31 30 31 23 20 19 23 29 24 17 11 10 15 11 16 14 13 14 17 18 14 3 3 10 20 6 7 6 11 18 21 24 27 36 40 36 39 41 32 36 40 40 38 33 27
29 27 24 21 19 19 30 24 20 19 13 14 15 14 16 14 10 13 15 14 7 7 15 15 12 6 5 12 13 12 18 23 26 28 31 39 40 31 39 40 40 38 37 26 20
28 29 24 24 16 20 26 22 22 20 20 19 18 16 13 9 10 9 10 4 8 9 12 12 8 8 12 7 9 14 17 17 17 32 43 39 41 28 26 29 29 30 26 20 17
25 21 25 28 18 20 26 30 25 20 20 17 17 12 9 10 11 3 5 4 5 9 11 10 5 4 2 4 12 15 19 16 31 35 45 42 39 28 24 22 23 24 17 16 15
22 19 22 31 25 23 28 31 30 28 24 21 21 13 11 9 8 22 20 17 11 12 5 5 7 8 17 13 9 20 34 40 44 44 43 44 40 37 29 24 26 26 16 15 16
24 26 30 32 16 29 29 29 31 27 26 22 21 5 9 26 28 28 24 22 8 8 8 7 10 14 24 24 23 23 27 37 43 47 44 38 37 34 30 24 22 26 22 12 12
22 24 28 22 12 23 30 35 29 29 23 24 30 25 28 29 29 22 25 17 15 10 10 12 12 12 12 12 20 24 26 33 39 41 42 35 34 33 30 22 23 29 32 7 8
19 21 17 17 19 29 33 29 33 28 28 30 28 28 27 28 29 32 27 24 19 11 12 12 14 7 8 15 22 21 27 33 34 37 37 36 32 31 29 26 24 32 33 15 14
Wind_Direction
309 305 303 299 296 297 299 299 296 291 292 295 298 294 289 290 297 301 299 309 311 301 306 302 303 296 293 284 279 284 275 273 273 275 274 289 278 278 290 285 289 294 298 298 303
305 300 298 295 294 293 297 299 299 292 291 294 298 301 299 299 293 289 294 302 305 307 302 299 294 293 284 283 280 270 271 275 279 274 274 275 275 277 281 281 283 288 296 299 296
298 299 295 290 291 291 294 298 301 297 293 298 301 301 305 307 293 294 298 236 271 300 302 303 298 291 282 280 277 278 270 272 275 277 273 274 274 277 277 271 277 282 290 301 288
293 292 295 292 286 290 293 297 301 301 299 303 306 305 305 302 289 314 316 316 288 272 304 304 300 293 287 278 277 275 276 270 274 275 277 276 280 276 275 274 275 282 285 287 285
288 288 291 292 287 285 290 295 299 302 304 306 308 310 306 289 284 314 318 322 332 269 289 304 300 295 288 289 279 274 274 273 273 271 272 272 269 274 261 265 269 272 279 279 279
287 284 287 288 288 285 286 289 295 301 303 306 309 314 303 287 309 302 307 315 329 320 307 303 305 298 298 293 283 281 276 274 274 273 275 270 267 272 273 275 267 268 270 275 276
283 285 282 284 285 286 286 286 291 299 303 306 313 312 302 293 320 328 313 307 319 324 314 307 300 303 307 294 293 289 277 273 272 277 276 280 259 232 270 273 266 265 270 271 277
279 282 280 279 280 284 284 285 289 296 302 304 311 311 296 314 313 301 312 309 307 309 314 320 319 296 292 299 298 292 285 275 278 274 278 277 248 279 274 268 262 262 269 270 273
277 275 276 273 275 281 282 283 291 295 298 303 302 304 294 312 307 307 309 310 315 305 307 312 314 301 300 291 288 285 281 279 278 279 278 267 264 278 274 272 266 267 268 271 271
277 272 269 268 267 275 277 281 290 294 293 296 298 296 295 300 315 320 313 315 317 311 303 297 299 293 291 285 282 284 281 279 275 280 280 270 267 272 275 274 269 269 267 266 270
278 268 266 261 256 264 268 278 280 283 279 279 288 293 302 315 324 319 321 310 309 305 291 293 285 281 283 283 285 283 280 279 279 283 281 274 271 273 274 271 269 265 266 268 265
282 264 263 257 250 250 252 265 278 292 284 277 279 282 295 312 302 307 322 296 292 288 292 291 280 285 289 286 285 282 279 276 278 281 280 278 269 273 272 268 270 270 265 264 270
277 266 257 251 242 241 249 260 285 295 284 286 281 281 285 292 293 298 293 294 296 287 286 282 297 289 285 284 283 282 278 276 275 280 279 279 265 268 269 269 268 266 265 263 265
268 266 253 242 237 242 254 262 276 298 281 283 287 293 291 292 296 285 284 298 296 290 289 288 284 282 284 284 281 281 282 279 276 276 272 280 268 271 274 267 266 263 260 260 260
268 259 251 219 235 240 256 242 268 291 271 289 289 309 308 291 311 310 294 289 290 292 292 291 293 284 277 281 281 283 286 281 278 276 275 270 271 270 272 267 263 266 261 257 257
260 249 257 222 236 243 215 203 259 268 267 283 298 292 297 290 304 316 311 297 311 292 286 287 297 290 284 279 276 290 282 282 281 276 268 268 266 263 269 270 269 268 264 258 254
243 238 248 209 228 202 180 205 253 259 282 283 289 297 296 298 300 307 306 295 297 297 291 293 282 289 288 283 278 272 276 276 272 266 268 276 267 266 276 279 271 266 262 257 253
232 241 250 214 188 179 192 232 252 266 266 298 305 306 309 308 309 310 309 301 294 295 300 293 291 281 278 272 278 263 263 269 272 270 273 268 265 269 275 271 266 265 261 258 250
229 235 239 203 176 183 198 239 250 260 271 274 300 305 313 312 321 321 313 309 308 286 299 305 300 308 289 278 266 276 262 265 273 279 278 271 271 274 269 262 261 258 255 253 248
217 225 234 185 170 188 223 241 253 259 266 278 294 311 316 320 322 332 335 344 337 321 169 332 312 170 170 166 220 264 277 270 263 270 271 274 269 265 266 260 257 255 254 251 240
215 230 218 180 179 201 232 241 250 250 266 285 297 313 314 319 321 334 344 2 48 85 156 171 181 156 130 189 199 207 251 273 273 267 270 266 259 269 256 258 257 253 248 241 235
217 226 194 181 189 223 232 238 242 251 266 283 298 309 312 323 325 328 338 69 94 88 148 169 171 210 219 319 261 216 209 216 265 259 246 242 233 260 278 266 253 246 243 244 232
215 222 193 194 219 221 227 229 239 250 263 284 300 313 321 322 332 336 136 114 114 133 149 146 164 234 342 221 216 214 204 217 204 245 215 216 219 238 274 270 258 242 235 227 223
220 216 208 212 232 220 223 228 236 243 260 279 290 310 320 325 185 219 198 207 149 171 146 121 205 215 231 221 165 196 205 205 203 204 207 209 224 232 258 274 239 228 229 226 221
219 222 211 216 220 221 226 228 229 245 253 271 280 285 329 230 213 207 210 224 180 153 148 171 227 230 242 239 217 198 185 188 190 197 194 206 218 233 245 254 237 223 228 223 213
229 215 215 220 184 226 224 225 231 237 251 257 243 264 218 223 211 227 205 189 191 134 155 182 229 243 249 223 182 176 185 179 184 191 203 216 226 230 236 239 228 212 203 206 183
237 227 227 231 221 224 225 230 223 238 247 242 219 235 239 227 213 212 225 233 218 184 172 183 231 206 160 120 133 178 178 175 181 191 196 199 217 214 221 232 228 194 172 133 137